Weather Roundup
Issued by NWS Corpus Christi, TX

Home | Current Version | Previous Version | Text Only | Print | Product List | Glossary On
Versions: 1 2 3 4 5 6 7 8 9 10 11 12 13 14 15 16 17 18 19 20 21 22 23 24 25 26 27 28 29 30 31 32 33 34 35 36 37 38 39 40 41 42 43 44 45 46 47 48 49 50
000
ASUS44 KCRP 042110
HRRCRP

SOUTH TEXAS REGIONAL WEATHER ROUNDUP
NATIONAL WEATHER SERVICE CORPUS CHRISTI TX
400 PM CDT TUE AUG 04 2015


TXZ229>244-042200-
...CORPUS CHRISTI AREA OBSERVATIONS...

CITY           SKY/WX    TMP DP  RH WIND       PRES   REMARKS
CORPUS CHRISTI MOSUNNY   91  78  65 SE14      29.91F HX 106
NAS CORPUS CHR MOSUNNY   90  78  68 SE17G26   29.92F HX 104
ROCKPORT       SUNNY     92  77  61 SE15      29.93F HX 105
KINGSVILLE NAS MOSUNNY   95  80  61 SE20G25   29.89F HX 114
ALICE          MOSUNNY   97  75  49 E13G22    29.88F HX 109
FALFURRIAS     MOSUNNY  102  65  30 S13       29.86F HX 105
$$

...VICTORIA AREA OBSERVATIONS...

CITY           SKY/WX    TMP DP  RH WIND       PRES   REMARKS
VICTORIA       MOSUNNY   96  71  44 SE14G22   29.92F HX 103
BEEVILLE       PTSUNNY   95  76  53 S8        29.91F HX 109
PLEASANTON     SUNNY    100  63  29 SE3       29.90F HX 102
SAN ANTONIO    MOSUNNY   98  66  34 S9        29.92F HX 101
$$

...LAREDO AREA OBSERVATIONS...

CITY           SKY/WX    TMP DP  RH WIND       PRES   REMARKS
LAREDO         SUNNY    104  58  21 E16G23    29.86F HX 104
COTULLA        MOSUNNY  100  64  30 SE8       29.87F HX 102
DEL RIO        SUNNY    101  63  28 S7        29.87F HX 103
MCALLEN        MOSUNNY  103  70  34 SE14G23   29.86F HX 111
HEBBRONVILLE     N/A    100  60  26 E12       29.90F HX 100
$$

...OTHER TEXAS OBSERVATIONS...

CITY           SKY/WX    TMP DP  RH WIND       PRES   REMARKS
BROWNSVILLE    MOSUNNY   93  77  59 SE20      29.90F HX 107
HOUSTON        PTSUNNY   88  77  69 VRB6      29.93F HX 100
COL. STATION   PTSUNNY   94  70  45 S12       29.92F HX 100
AUSTIN         PTSUNNY   97  68  38 S13       29.91F HX 102
WACO           SUNNY     99  67  35 S14       29.90F HX 103
FORT WORTH     PTSUNNY   96  62  32 SE5G16    29.90F HX  97
WICHITA FALLS  PTSUNNY   91  70  49 SW12      29.90F HX  96
LUBBOCK        MOSUNNY   91  66  43 SW13G21   30.00F HX  93
EL PASO        MOSUNNY   96  54  24 CALM      30.04F HX  94
$$

...MARINE OBSERVATIONS...

STATION/POSITION TIME  SKY/WX   TEMP    WIND        PRES    VSBY  WAVE   SWELL
                                AIR SEA DIR/SP/G                  HT/PER HT/PER
                 (UTC)          (F)     (DEG/KT/KT) (MB)    (MI)  (FT/S) (FT/S)
PORT ARANSAS     2100            85 88  110/ 12/ 14 1014.6F
BUOY 90 E PORT A 2050            85 87  140/  6/  8 1014.7F         2/ 5   2/ 5
BUOY 45 SE BAFFI 2050            85 85  150/ 12/ 14 1013.3F         2/ 5
BUOY 200 E PT IS 2050            87 86  160/  8/ 10 1015.2F         2/ 5   2/ 5
BUOY 15 E GALVES 2050            85 88  170/ 12/ 14 1014.2F         1/ 4
$$



USA.gov is the U.S. government's official web portal to all federal, state and local government web resources and services.